Location: San Gennaro Vesuviano
(40.8833°N, 14.5333°E)
Time: 22:45:25
(UTC+00:00)

Cosmos 2219 - Pass Details

Date: 22 April 2021
Orbit: 834 x 859 km, 71.1° (Epoch: 10 May)

Event Time Altitude Azimuth Distance (km) Brightness Sun altitude
Rises 19:04:50 0° 192° (SSW) 3,367 6.1 -13.9°
Reaches altitude 10° 19:07:17 10° 189° (S) 2,436 5.4 -14.3°
Maximum altitude 19:12:47 63° 109° (ESE) 930 3.1 -15.2°
Drops below altitude 10° 19:18:19 10° 30° (NNE) 2,454 5.7 -16.1°
Sets 19:20:47 0° 27° (NNE) 3,394 6.4 -16.5°
